Theta_e
324 324 324 325 325 326 327 327 327 327 327 326 327 327 326 326 326 325 326 327 327 329 327 327 327 324 323 324 324 325 314 297 296 295 296 297 311 322 322 323 323 323 322 308 304 299 297 295 302 299 295 293 294 291 294 295 292 289 282 279 279 279 278 281 280 279 284 281 283 284 285 283 280 283 283 286 283 282 282 281 281 282 281 281 281 281 282 282
324 323 324 324 325 326 326 327 327 327 326 327 327 326 326 325 325 325 326 326 327 328 326 326 324 322 323 324 323 322 304 298 294 295 295 308 321 322 322 321 322 323 317 301 299 299 297 295 295 293 290 291 292 293 294 293 292 285 280 280 278 278 283 283 283 283 281 282 284 285 285 285 284 285 285 281 280 280 279 279 280 279 279 280 281 281 281 281
323 323 324 324 324 325 326 327 327 327 327 327 326 326 326 326 325 325 325 325 327 328 325 324 322 323 322 324 320 320 306 297 293 293 297 316 320 322 322 321 321 320 305 302 298 299 297 297 296 295 291 289 292 292 293 292 289 285 281 278 280 282 283 283 284 285 284 283 282 283 284 283 283 285 285 281 279 280 278 277 278 277 277 278 279 280 280 280
323 323 322 323 324 324 326 326 327 327 327 327 326 326 326 325 325 324 325 325 325 325 323 323 322 322 323 322 323 306 297 290 288 292 297 316 319 322 321 321 321 311 306 303 302 302 299 298 295 293 292 291 290 291 290 290 286 286 283 276 282 282 282 285 283 283 283 283 282 283 284 282 283 284 283 281 279 279 278 280 279 278 278 278 278 279 279 279
322 321 322 322 323 323 324 326 327 327 327 327 326 325 325 326 325 324 324 323 323 324 323 323 323 324 322 321 318 301 294 285 288 294 299 316 320 321 319 320 318 303 301 302 303 299 302 299 296 293 291 288 288 286 287 289 288 284 283 283 284 282 283 285 284 283 283 282 283 281 282 282 285 282 281 281 277 276 279 281 281 280 280 279 278 278 279 279
321 321 321 322 322 323 324 325 326 326 327 327 326 325 324 324 324 323 322 323 324 324 324 324 323 322 323 319 300 297 294 278 293 295 312 316 318 319 317 317 314 303 299 298 295 296 295 294 292 290 287 286 286 286 288 289 289 282 283 283 284 281 284 284 285 284 282 282 283 282 284 282 280 280 280 280 279 279 282 282 281 281 280 280 279 279 278 278
321 321 320 321 321 322 324 323 325 327 327 327 326 323 323 323 321 322 324 324 325 326 324 322 321 322 320 318 300 297 292 290 292 297 310 315 316 313 314 308 305 299 300 297 295 294 292 293 293 289 286 286 287 286 288 288 288 285 282 283 284 283 285 283 283 282 281 283 282 283 284 281 280 278 280 278 280 280 280 281 281 281 281 280 278 278 278 278
321 321 320 320 320 321 322 323 325 326 326 326 325 323 321 322 323 323 324 324 325 324 324 321 321 321 316 301 294 290 288 289 295 298 308 312 303 301 302 298 296 298 298 295 294 293 291 291 292 290 287 284 288 287 290 288 286 285 283 285 284 284 283 283 282 282 283 282 283 283 281 280 280 279 278 278 279 280 280 281 280 280 279 278 278 278 278 278
321 321 320 319 320 320 321 323 324 325 325 326 326 326 325 324 322 323 324 324 324 324 322 322 322 318 316 296 290 288 287 293 297 298 297 296 296 295 296 297 295 297 294 294 294 294 292 291 291 289 286 287 290 289 288 285 283 286 286 284 284 284 283 282 282 282 282 283 283 280 278 279 280 280 277 278 279 279 280 279 279 279 278 277 277 278 278 278
321 321 320 319 320 321 321 322 323 324 325 326 326 326 326 324 321 322 323 324 323 322 322 321 320 316 300 293 291 288 291 296 296 297 295 295 295 295 296 294 294 295 295 293 295 294 292 292 292 293 292 288 288 287 288 286 285 288 286 284 284 283 284 285 282 282 282 282 281 279 278 279 280 280 275 278 279 279 278 277 277 277 277 277 278 278 277 278
320 320 319 319 320 320 322 322 322 323 324 326 326 325 324 323 322 323 322 323 323 323 321 319 315 307 296 292 288 286 296 297 297 296 295 295 295 294 294 294 294 295 294 293 292 292 294 294 293 294 291 288 289 286 286 288 289 287 286 285 284 284 284 284 283 282 280 282 280 280 278 279 278 279 276 279 280 279 277 276 276 275 276 276 277 277 277 277
320 320 319 320 320 321 322 322 322 322 323 324 326 325 323 322 321 322 323 322 322 321 321 320 317 299 294 295 290 290 296 298 296 294 296 296 296 295 296 294 293 294 294 292 291 292 294 295 295 292 287 291 285 286 287 290 289 288 287 283 283 282 283 283 283 283 281 281 281 281 278 277 278 277 277 280 279 278 277 276 275 275 275 275 275 276 276 277
320 320 319 320 321 321 321 322 321 323 323 324 324 323 321 320 320 319 321 318 319 320 321 320 317 301 294 290 291 296 294 295 296 295 298 297 294 296 294 293 292 294 295 294 291 292 293 293 296 293 292 287 286 284 288 288 287 287 284 281 279 278 278 283 283 283 282 283 282 282 274 273 276 277 277 279 278 277 275 275 275 275 274 274 275 276 276 276
320 319 319 319 320 321 322 321 321 322 323 323 322 320 319 319 319 319 319 319 320 321 320 319 298 294 290 286 295 297 296 296 295 297 294 297 296 295 296 297 293 291 293 293 293 294 294 294 295 293 292 289 287 293 288 284 285 282 281 280 275 273 276 281 283 281 282 283 283 283 275 274 275 277 278 278 278 277 275 275 275 275 274 274 275 275 276 277
319 319 319 321 322 321 322 322 321 320 320 320 319 319 318 317 318 320 321 316 316 319 319 312 300 297 288 292 295 297 312 293 294 294 293 296 294 295 295 296 293 292 292 293 294 294 295 294 293 287 286 289 290 286 279 279 279 278 280 272 274 273 274 280 284 282 281 283 282 281 273 275 275 277 278 278 277 277 275 275 275 274 274 274 275 275 276 277
319 319 320 322 320 320 320 320 319 319 319 319 317 317 317 318 319 320 321 315 318 318 307 299 298 294 288 288 294 305 293 292 294 294 293 295 295 294 294 293 293 294 295 294 295 295 294 293 289 287 286 286 283 277 278 277 275 276 276 269 271 273 274 277 283 282 283 282 281 281 277 277 277 278 278 278 277 276 275 274 274 274 274 275 275 275 276 276
319 319 321 320 319 319 319 318 318 319 320 321 321 318 318 317 318 315 318 317 310 308 300 297 296 298 288 292 297 292 290 292 294 294 294 295 295 294 294 292 292 292 291 293 295 293 292 289 287 286 285 282 281 280 281 272 272 272 274 275 274 275 275 274 278 282 281 280 279 279 277 277 276 277 278 277 277 275 274 274 274 274 275 275 275 275 275 275
319 319 320 318 318 318 318 319 318 318 318 319 318 318 311 319 317 313 307 305 306 302 301 301 298 294 289 293 289 290 293 291 293 294 293 294 294 294 294 292 293 290 291 290 290 290 288 284 285 281 280 281 281 279 273 272 274 273 273 272 274 274 275 276 275 278 281 279 278 278 276 277 276 277 278 277 277 276 275 275 275 275 275 275 275 275 275 275
319 319 319 318 318 318 319 318 318 318 318 318 319 321 319 315 304 299 298 298 297 292 287 290 289 286 283 289 290 290 293 294 294 294 294 295 294 294 294 294 292 290 288 285 287 286 284 283 282 279 279 279 278 278 275 277 276 277 276 275 274 274 274 275 278 279 280 278 278 276 276 277 276 276 277 277 277 275 275 275 275 275 275 275 275 275 275 275
320 320 318 317 318 317 318 319 319 318 317 307 306 307 303 293 292 289 294 296 289 291 291 292 291 291 289 288 291 294 295 293 292 293 294 294 294 292 292 292 291 291 284 283 284 284 283 279 276 275 276 279 279 280 280 280 278 278 277 276 275 274 275 276 278 280 279 278 275 275 276 276 277 277 278 278 276 275 274 274 274 274 275 275 275 275 275 275
319 319 317 316 315 318 319 319 319 318 317 307 305 302 299 288 285 285 288 292 291 291 290 291 292 290 290 291 291 292 291 291 292 293 294 296 293 291 290 288 285 285 282 285 284 286 283 280 277 280 280 280 280 280 279 278 277 278 276 275 274 274 274 278 278 278 279 278 275 276 276 277 277 276 277 277 275 275 275 274 274 274 275 275 275 275 275 276
319 318 316 316 316 319 319 319 318 318 317 307 302 298 299 296 297 293 289 285 292 293 291 290 290 290 290 291 292 292 289 288 292 293 296 296 292 288 288 285 282 281 281 283 281 279 280 277 280 280 280 280 278 278 278 278 277 275 277 272 272 274 276 277 277 278 280 279 276 276 275 277 277 275 276 276 276 276 276 276 276 275 275 275 275 275 275 275
318 317 317 316 317 319 319 318 317 317 307 301 299 297 299 303 303 301 292 289 288 293 292 290 290 288 289 291 293 292 286 286 285 291 293 293 288 290 285 283 282 281 283 281 280 277 278 278 282 281 281 281 280 277 277 277 276 275 274 273 273 275 273 272 277 277 279 277 275 277 275 277 275 274 274 276 275 275 274 275 276 276 275 275 275 276 276 275
317 317 316 315 318 319 318 316 314 305 300 300 298 298 302 301 302 304 292 286 287 292 293 292 291 290 290 291 294 291 287 289 286 289 295 290 287 288 286 283 281 280 280 279 280 281 278 282 281 279 280 280 279 277 277 275 274 275 276 274 272 274 275 274 276 277 278 277 278 276 276 274 273 274 274 275 275 275 275 276 275 275 276 276 276 275 275 276
316 316 315 317 315 317 315 314 306 302 299 297 299 301 300 300 303 298 293 287 284 288 296 295 292 290 292 296 295 293 289 289 289 291 292 291 290 288 286 287 282 281 280 280 280 280 279 282 283 279 278 277 277 276 277 276 274 274 274 277 277 276 275 275 276 276 274 272 277 276 270 268 272 272 274 274 274 274 274 274 275 275 275 275 275 276 276 277
315 317 317 316 316 314 315 304 300 301 300 298 300 303 300 299 303 303 289 280 279 282 290 287 296 290 295 293 293 289 290 286 291 291 295 292 294 291 286 285 283 280 280 281 280 279 280 281 281 281 277 277 276 276 278 277 273 272 277 276 277 276 276 275 275 274 267 268 273 277 269 267 272 272 273 273 273 274 273 274 275 275 275 275 275 276 276 276
315 315 317 316 314 313 302 298 300 304 297 296 303 300 299 301 301 302 294 276 277 283 287 292 292 290 296 292 291 292 283 284 292 291 291 293 291 293 286 281 284 285 283 280 278 278 282 280 278 278 277 276 276 274 277 276 272 274 278 277 277 276 275 275 275 274 272 275 277 276 272 266 269 273 272 272 272 273 273 274 275 275 275 275 275 276 276 275
316 316 316 316 313 313 300 302 300 300 302 304 302 299 299 300 303 297 282 272 272 289 286 288 291 296 297 294 291 288 288 289 285 289 292 293 293 289 285 283 282 283 284 280 276 280 281 280 280 279 275 275 276 277 278 278 276 277 279 278 278 277 277 276 274 272 273 272 271 271 274 269 265 271 271 272 271 272 273 274 275 276 275 275 276 276 276 276
315 316 316 315 315 315 305 301 299 298 303 300 298 299 302 299 296 290 277 272 283 284 297 289 298 292 289 292 287 286 288 289 284 289 290 291 291 289 282 284 282 281 281 283 278 278 280 282 280 280 277 276 278 277 277 278 277 277 278 280 278 278 277 277 273 272 268 270 264 269 272 266 268 272 270 271 270 271 273 274 275 276 276 276 276 276 276 275
314 315 316 316 310 308 303 301 301 304 301 299 298 301 299 296 291 280 273 270 288 279 291 290 289 284 285 286 283 285 286 285 286 288 288 284 288 289 286 288 282 280 281 279 278 278 281 284 283 280 277 279 278 278 278 277 279 279 278 277 277 274 273 273 273 269 265 261 266 271 272 271 265 270 272 270 272 273 274 274 274 274 275 275 276 276 276 275
313 313 314 315 304 301 302 303 301 301 300 298 300 297 295 286 278 272 272 276 286 286 290 285 284 284 282 284 283 283 283 282 285 284 283 284 284 282 283 285 283 281 275 276 276 278 281 281 283 282 283 282 279 279 279 279 278 278 275 273 273 273 272 269 267 265 262 262 266 271 272 271 264 269 271 274 273 271 275 274 274 275 275 276 276 276 276 274
313 311 313 306 302 303 303 297 303 300 299 300 299 293 289 284 279 277 274 286 281 281 282 281 283 282 281 282 280 280 282 281 283 282 279 277 277 278 278 275 273 271 271 273 274 277 277 279 281 280 284 282 278 277 276 278 277 277 274 275 272 265 262 264 262 264 263 265 271 271 272 269 269 274 276 274 274 275 273 276 276 275 275 276 276 276 275 274
313 312 310 303 301 296 297 300 299 299 299 299 294 288 282 274 272 269 277 279 282 284 282 284 282 282 281 280 280 280 282 282 282 282 281 279 277 279 279 279 278 278 276 275 275 275 274 276 278 280 281 282 280 275 274 274 274 276 273 267 264 262 259 263 259 262 263 271 271 271 272 269 273 275 276 278 279 278 277 276 276 276 276 276 276 276 274 273
313 308 299 301 299 298 298 299 298 298 301 296 291 287 281 277 274 284 276 276 282 282 283 282 282 282 280 280 281 282 281 282 282 282 280 279 275 276 276 277 279 277 274 275 276 272 271 271 277 278 278 280 276 275 276 275 275 274 275 272 266 263 264 262 260 262 262 269 272 272 266 264 268 277 276 277 276 275 276 275 275 276 275 275 275 274 273 273
312 302 300 299 296 299 298 298 297 299 295 293 286 279 276 272 270 275 275 278 279 282 283 283 282 280 281 279 280 281 281 279 281 279 278 277 278 274 277 276 278 277 277 275 271 270 277 275 277 281 279 279 278 279 277 276 275 275 274 272 271 267 266 265 258 261 260 263 265 263 267 266 275 277 277 275 274 273 274 275 275 275 275 274 274 273 273 272
310 303 299 296 296 297 297 298 297 299 295 290 284 280 277 274 282 277 279 280 282 281 281 281 279 280 277 276 279 278 284 279 280 278 277 276 277 277 279 277 277 278 274 273 270 271 274 274 278 279 279 277 277 279 279 279 268 274 273 267 271 273 270 263 265 268 265 260 264 262 269 274 275 277 275 273 273 275 273 274 274 274 275 274 274 274 273 272
300 297 296 295 294 297 298 298 299 296 294 287 283 278 274 277 281 279 285 282 282 280 281 278 277 279 275 275 277 275 277 281 278 278 277 278 278 277 278 278 279 278 277 273 271 272 271 275 277 277 278 280 278 278 279 277 278 272 267 271 275 274 272 266 263 257 255 258 265 264 267 271 270 271 273 273 273 274 274 274 275 274 274 274 275 274 273 272
299 295 295 295 297 298 298 298 298 292 287 286 282 290 281 281 282 283 282 282 283 280 278 279 277 282 274 275 278 274 278 278 279 279 276 279 278 280 277 278 280 279 277 278 274 274 274 271 275 278 278 279 279 279 277 278 278 277 274 275 273 263 266 264 262 262 262 259 262 265 263 268 268 272 273 275 272 274 275 275 274 274 274 274 274 274 273 272
295 293 290 295 299 299 298 298 296 291 283 282 275 284 283 281 283 282 283 284 283 281 280 277 277 279 277 274 276 276 275 276 276 276 276 278 276 280 279 278 279 279 279 279 275 276 275 270 274 277 277 277 277 276 269 273 277 277 277 275 275 271 266 263 265 260 261 261 261 267 266 270 270 269 271 277 277 276 276 273 274 275 275 274 274 274 273 272
298 292 289 297 299 298 297 296 293 286 284 282 276 277 280 282 283 282 281 284 282 282 278 278 280 275 279 276 275 276 278 277 276 278 279 278 279 282 279 280 277 279 278 278 276 277 274 274 268 274 276 277 273 275 273 273 269 272 271 266 272 265 269 268 264 263 265 257 257 256 262 271 278 275 275 278 279 278 276 277 276 275 274 274 274 274 273 272
292 290 291 298 299 298 297 294 286 277 278 281 280 281 283 283 282 282 284 283 284 284 281 281 278 278 277 277 277 279 278 276 277 276 277 278 278 275 279 279 278 277 279 277 276 275 270 275 269 272 274 273 276 276 275 274 275 273 272 268 271 263 268 264 267 263 260 263 260 257 266 272 279 280 279 279 279 277 277 276 276 275 274 274 274 273 273 272
291 285 289 298 297 299 293 283 279 279 277 279 282 283 284 289 281 282 282 282 283 281 281 281 280 280 278 278 277 279 277 276 276 276 278 276 280 278 280 279 279 278 276 273 273 276 275 271 272 270 274 277 276 276 276 275 275 274 275 271 270 264 265 262 262 262 262 262 259 259 258 268 277 275 276 277 277 277 276 275 275 275 274 274 274 274 273 272
288 288 294 297 298 296 289 279 283 278 276 282 284 283 282 283 280 281 281 282 283 282 282 282 282 281 281 281 279 279 278 276 277 275 276 278 277 278 279 277 278 277 275 273 276 275 283 268 267 272 275 274 275 275 274 274 276 275 274 272 270 267 270 270 266 259 261 259 261 259 260 269 279 275 275 276 275 275 274 273 275 275 274 274 273 273 272 272
286 289 295 298 297 295 289 283 282 277 276 281 282 282 283 283 281 282 282 281 281 282 283 281 281 282 281 281 279 280 280 276 279 278 279 277 278 279 277 278 279 277 277 276 274 277 272 272 271 266 268 270 274 274 274 275 275 272 268 270 270 266 264 260 262 259 266 263 267 263 262 268 279 275 276 274 274 275 275 275 273 274 275 274 274 273 272 272
286 288 288 291 294 294 288 282 277 274 279 279 280 282 282 282 282 282 282 282 282 279 280 281 282 281 280 280 279 279 279 279 277 279 275 276 276 279 276 275 276 278 280 280 284 279 273 271 270 269 268 270 271 271 271 267 270 272 272 271 268 269 265 267 266 261 263 264 267 260 264 274 281 280 279 278 278 278 277 276 276 275 276 276 275 273 272 271
290 285 284 285 288 285 284 281 281 279 275 275 278 279 280 280 283 282 282 282 281 281 281 282 280 280 280 280 280 280 280 279 279 275 274 275 275 278 278 276 277 278 281 285 280 276 267 270 273 272 271 273 276 277 277 277 274 271 269 269 269 267 268 267 264 261 266 263 266 269 271 276 278 279 280 281 281 280 281 279 277 277 276 275 274 274 273 272
287 283 283 286 285 284 282 280 281 281 280 279 278 278 277 278 280 281 283 282 282 281 281 282 282 281 280 280 277 279 278 279 278 275 272 271 272 277 278 277 278 280 284 281 277 268 266 268 272 274 273 277 278 278 277 277 275 276 274 272 269 269 268 268 269 268 268 264 268 273 273 272 274 278 280 281 282 282 282 281 280 280 279 278 276 275 276 272
287 283 285 288 285 285 282 282 280 280 281 282 280 282 278 279 280 276 282 282 282 281 281 280 281 281 278 280 279 275 278 278 277 272 273 271 273 276 276 279 277 281 281 277 273 271 267 268 266 268 270 273 274 275 276 276 276 276 275 273 270 270 268 269 270 273 270 269 271 278 273 270 276 279 281 281 281 281 281 281 281 280 278 276 274 273 272 272
287 284 284 285 287 282 283 284 281 281 281 279 281 281 278 278 277 279 280 281 281 280 281 276 278 280 279 278 281 275 277 275 274 273 270 272 271 271 271 274 278 278 277 274 275 266 270 267 266 266 271 275 276 276 276 275 274 273 273 274 275 271 269 271 273 273 273 273 275 276 276 275 278 279 280 281 282 281 281 281 279 278 278 277 274 273 272 272
284 286 283 280 280 279 279 281 281 281 282 284 279 280 280 278 278 280 281 280 277 280 282 281 280 279 279 279 278 274 278 280 279 276 273 272 272 270 269 272 273 276 276 273 271 272 272 268 273 267 267 272 276 274 272 273 271 272 276 276 275 274 272 271 272 273 272 272 274 274 273 273 278 280 280 281 281 281 279 278 278 279 278 276 274 273 273 273
288 283 285 285 280 280 280 280 283 281 281 280 281 281 282 280 278 280 283 281 281 279 280 281 279 279 280 279 279 280 279 280 279 281 279 276 274 276 276 274 278 272 273 271 269 270 270 266 263 262 267 269 272 271 274 275 274 273 274 276 275 272 268 271 269 272 270 271 272 270 269 272 279 281 279 279 278 278 279 280 280 280 279 276 274 274 274 274
284 286 282 280 280 283 284 278 280 281 279 277 281 282 283 282 279 281 282 280 280 283 281 280 279 280 280 281 280 281 280 279 280 280 279 278 279 277 278 278 278 276 274 272 267 268 268 265 268 264 267 269 272 272 273 274 274 274 273 273 276 274 273 272 274 274 275 276 271 270 274 281 282 283 281 281 282 282 281 282 281 281 279 277 276 277 277 276
Wind_Speed
8 8 8 8 9 8 7 6 5 6 6 6 6 6 5 4 5 6 7 7 5 5 5 5 4 4 7 6 6 6 5 4 7 10 15 1 5 11 11 11 10 12 8 0 1 4 2 6 5 8 4 6 3 3 4 5 3 7 5 6 6 1 4 1 3 3 1 2 0 5 4 16 7 2 6 5 11 9 6 9 4 12 8 6 4 4 5 4
8 8 8 8 8 8 7 7 6 6 5 4 6 6 5 4 6 7 6 5 4 3 3 3 3 4 6 6 5 6 3 3 6 12 6 7 14 17 18 17 14 9 2 0 0 2 2 2 2 3 2 4 3 2 2 1 5 6 3 5 5 3 0 3 1 2 3 2 2 2 2 5 5 8 4 6 3 6 8 4 4 7 4 5 5 5 7 7
8 8 8 8 8 7 7 6 7 7 6 5 6 6 5 6 6 6 7 5 4 2 2 2 4 4 5 5 6 4 1 2 6 12 8 16 18 18 19 18 16 8 2 1 1 3 2 2 3 2 4 5 7 3 5 3 4 2 8 5 0 4 2 2 2 3 4 7 4 3 2 5 2 2 2 5 8 4 11 8 1 5 6 4 4 5 5 8
8 8 8 7 7 7 5 5 6 4 3 4 5 6 5 5 5 6 5 4 5 5 4 4 6 6 5 4 4 1 4 2 7 4 6 15 18 17 18 18 16 8 2 2 3 3 3 1 3 5 3 8 5 4 7 5 4 1 6 4 5 5 5 1 4 5 3 4 3 5 1 5 2 1 3 10 8 1 4 8 11 11 11 8 5 6 6 7
7 7 6 6 6 6 5 4 2 2 4 6 7 5 4 3 2 5 5 5 6 7 7 6 7 7 6 1 3 2 3 4 2 3 7 15 16 17 16 15 14 8 0 1 4 2 3 1 2 5 5 2 4 4 4 4 3 4 1 5 7 2 6 2 3 5 5 5 9 4 5 4 1 4 4 7 3 7 9 8 4 11 10 12 9 5 5 7
7 7 7 6 6 6 6 5 4 6 7 8 6 4 3 2 3 5 3 3 6 6 6 5 6 6 7 6 2 3 2 2 2 5 11 15 16 15 15 12 13 6 3 11 4 2 7 4 5 2 3 4 3 6 3 1 1 5 2 4 4 4 7 3 2 2 5 3 7 4 2 3 2 2 0 1 2 2 1 4 7 8 7 7 7 7 7 6
6 7 7 6 6 6 6 7 6 5 7 5 4 3 3 4 2 1 1 3 4 4 4 5 5 5 5 3 4 13 10 1 1 9 12 13 15 14 14 9 12 10 15 8 8 5 3 7 7 2 4 4 1 5 3 3 5 8 4 3 1 4 6 5 5 5 5 8 4 5 4 4 4 3 0 2 1 2 4 6 7 7 7 7 8 5 8 8
6 7 6 6 6 5 5 6 6 5 6 5 4 4 4 3 2 2 2 3 4 5 5 6 6 3 3 2 5 6 6 2 8 7 11 13 12 11 11 5 10 5 16 7 2 3 4 6 8 2 7 4 2 4 1 10 6 5 4 1 2 4 4 6 6 7 8 5 5 7 5 4 3 4 2 1 1 3 4 5 7 7 7 5 7 6 6 6
6 6 5 6 6 7 5 5 6 7 5 5 4 3 3 3 2 4 4 4 4 4 5 5 3 3 2 5 6 7 4 3 6 8 9 9 10 10 10 6 8 9 4 5 4 2 6 0 1 2 4 3 0 6 2 5 3 0 3 4 3 2 4 5 5 6 6 4 4 9 5 2 5 5 2 4 3 3 4 6 6 7 7 6 6 7 6 6
6 5 4 5 6 6 6 5 6 7 6 4 2 2 4 3 3 4 5 5 4 6 8 8 6 8 6 4 3 9 3 5 6 6 8 7 8 11 12 8 7 7 8 7 11 10 5 1 3 5 11 5 3 3 0 6 2 2 4 4 8 5 4 1 4 4 5 4 4 7 4 5 3 4 2 4 5 4 5 5 4 7 7 5 5 5 5 7
6 5 4 4 4 5 6 7 6 5 5 4 2 3 4 3 3 3 5 5 5 4 7 9 7 6 7 3 8 5 2 6 2 6 8 7 9 8 7 7 7 5 7 10 8 3 0 2 4 3 5 1 4 4 4 1 1 4 8 6 4 1 2 1 1 4 3 1 1 13 6 3 2 1 6 10 8 6 8 5 5 5 5 5 5 5 4 5
6 5 5 5 5 5 5 6 5 5 4 4 3 3 4 3 4 4 5 6 5 2 5 6 5 7 5 11 10 2 4 3 4 4 5 6 4 3 5 3 4 4 8 7 5 4 1 2 4 2 4 1 4 1 2 1 2 1 5 2 2 3 2 1 0 2 1 0 4 10 9 1 2 5 2 10 8 7 8 6 5 5 5 5 5 4 5 6
6 5 4 3 5 6 6 5 5 5 4 4 3 3 5 6 6 7 7 7 6 7 5 5 3 5 3 9 1 4 2 2 4 7 8 6 4 0 1 2 3 5 7 8 5 4 5 3 9 12 1 4 2 1 1 5 1 4 7 3 1 4 1 1 1 1 3 1 11 5 5 6 7 4 4 8 9 6 6 6 5 5 5 4 5 5 5 5
6 6 6 6 7 6 5 4 5 5 4 5 4 4 4 5 7 8 8 7 8 6 6 5 6 7 6 2 4 4 1 0 6 9 7 6 6 5 8 9 4 4 1 5 4 7 7 6 14 7 3 5 2 1 2 4 5 2 1 5 1 3 2 5 0 1 2 3 8 1 4 7 5 3 5 7 9 11 9 7 7 6 6 5 6 6 6 7
5 4 5 6 6 6 6 3 4 4 4 4 4 5 6 7 6 6 8 8 8 7 5 6 6 2 6 1 4 7 3 3 7 4 3 7 3 3 6 9 5 6 2 6 1 4 5 6 10 8 2 2 1 2 3 4 5 3 2 3 3 3 5 11 3 1 3 1 2 2 4 7 4 7 8 8 8 9 9 8 8 7 7 7 6 7 7 8
7 7 5 5 5 4 3 2 2 3 4 5 5 8 10 9 6 5 4 2 7 7 1 6 5 8 8 3 0 3 4 3 6 4 2 3 1 1 3 4 3 5 10 5 4 5 7 10 12 1 3 6 9 6 6 3 3 5 3 2 3 1 4 6 1 2 3 2 1 2 6 6 6 6 8 8 10 9 8 8 8 8 9 8 7 7 7 7
6 6 5 2 3 3 2 3 5 6 6 6 7 7 9 12 12 3 4 5 6 4 6 1 0 1 3 3 1 3 2 2 4 3 5 1 1 0 3 3 1 0 2 7 11 8 9 9 2 5 5 5 1 2 2 5 4 2 3 0 2 2 4 4 6 1 2 4 4 1 2 6 4 3 8 9 11 9 9 9 9 9 8 9 8 8 8 8
7 7 5 2 6 6 4 5 7 7 6 7 4 5 5 9 11 11 12 7 3 5 3 3 2 4 1 6 2 4 2 5 5 7 2 3 3 5 2 2 1 2 5 3 7 9 5 5 6 5 1 7 10 10 5 1 2 4 4 4 5 1 3 6 3 4 7 3 3 6 5 9 6 3 8 11 10 11 11 10 10 10 9 9 8 8 9 8
5 7 5 5 8 5 3 6 7 7 7 6 4 1 0 6 3 6 6 5 3 4 3 6 5 1 2 2 5 6 3 4 2 6 7 8 3 1 2 3 4 1 1 5 3 5 5 5 6 6 9 9 5 5 3 3 2 6 5 4 2 5 4 5 5 4 2 6 8 5 6 7 5 4 7 7 9 11 10 6 7 8 8 9 9 9 8 8
5 8 5 7 7 1 3 4 6 6 6 5 5 2 3 3 5 3 8 8 5 2 2 1 1 1 1 5 5 6 2 5 4 6 4 1 3 3 6 3 5 8 5 2 3 3 1 9 7 3 4 4 3 2 0 4 4 2 1 1 6 4 7 4 5 5 3 5 3 3 5 6 8 8 11 10 6 7 7 9 9 8 9 9 8 9 9 7
5 6 7 7 4 2 3 4 5 5 4 5 2 3 1 4 5 1 1 1 1 1 1 1 1 2 1 1 3 4 1 2 2 8 6 3 1 2 5 4 6 7 4 1 2 3 4 10 5 1 3 3 3 0 1 3 3 2 2 1 6 3 8 7 5 3 2 5 7 4 6 10 10 6 7 5 6 12 12 10 10 10 10 9 9 9 9 8
5 5 7 6 1 2 3 5 6 6 4 3 4 3 1 2 0 1 6 3 1 1 4 2 2 3 3 0 3 3 4 1 10 13 7 6 5 4 4 8 5 5 4 2 2 8 9 6 2 3 2 2 4 4 3 4 1 3 1 1 2 6 6 8 0 1 1 5 10 5 3 11 9 6 5 8 11 8 9 12 12 11 10 9 9 8 8 5
4 5 6 5 1 3 4 6 7 5 2 3 3 4 1 0 3 1 4 6 2 1 3 3 4 3 3 5 2 4 3 6 1 7 8 5 2 5 1 5 5 2 4 5 5 1 6 2 2 1 3 3 2 5 6 5 3 2 3 2 5 2 4 7 4 2 4 1 6 7 9 12 4 2 5 6 6 4 5 8 8 8 11 11 11 10 8 7
3 3 4 4 1 3 5 6 3 6 5 4 5 3 0 2 3 1 2 2 3 1 1 0 1 0 1 1 2 5 2 1 2 9 7 3 2 1 4 3 5 4 4 4 6 9 5 1 1 5 5 2 1 3 5 6 6 2 2 1 3 3 3 6 8 9 9 5 3 5 9 9 1 3 3 5 2 3 3 3 6 8 8 7 6 5 6 8
3 3 3 2 1 3 5 6 7 1 2 3 1 2 1 1 0 0 3 1 4 1 1 1 3 1 2 1 2 0 0 0 1 2 2 3 2 2 1 1 3 1 3 1 6 9 2 1 0 3 4 5 1 2 2 2 7 7 4 3 4 4 5 5 5 9 7 4 1 8 8 5 3 4 9 4 1 6 2 5 9 8 7 6 8 10 6 7
3 2 3 4 2 4 3 4 0 2 2 1 1 1 2 1 1 0 4 4 0 2 2 2 1 0 1 1 3 0 2 2 2 1 2 0 2 2 1 3 1 2 3 0 3 2 2 2 3 1 2 3 4 2 1 2 0 1 3 6 3 4 4 4 5 4 4 3 1 3 3 11 1 5 6 4 5 10 3 6 10 8 9 8 10 9 9 8
2 3 4 4 4 3 4 0 1 1 1 1 1 2 3 2 1 0 1 4 1 1 1 1 1 1 2 2 0 1 1 1 2 2 3 2 1 1 3 2 2 2 2 2 3 0 0 2 4 5 5 4 5 4 1 2 2 4 2 1 5 5 6 6 3 4 6 3 4 1 3 3 10 7 3 3 5 9 8 12 12 11 11 12 10 9 9 8
5 5 6 6 6 6 1 2 1 0 1 0 1 3 2 2 1 2 4 1 1 1 1 1 0 1 1 2 5 2 0 1 1 2 3 4 1 3 6 2 2 2 0 2 0 0 1 1 1 1 4 4 1 2 1 3 1 5 7 5 10 10 8 3 2 4 3 3 8 4 0 1 5 6 2 1 3 7 13 14 14 14 13 13 12 12 10 9
8 7 6 7 8 8 4 1 2 2 0 1 2 2 2 2 4 4 4 1 0 1 0 2 2 1 5 2 5 1 0 2 2 1 5 2 6 1 3 1 5 4 2 1 3 1 1 0 3 4 2 0 4 3 2 6 2 4 6 9 3 2 1 2 2 4 1 3 6 2 1 1 9 5 2 1 3 9 11 13 14 13 14 13 13 12 10 7
11 9 7 6 6 1 1 2 2 0 1 0 1 1 2 2 3 2 3 3 1 0 0 2 1 2 3 1 3 7 5 3 1 4 5 2 8 8 3 1 2 2 1 5 4 5 0 4 5 4 2 1 2 4 2 5 5 5 6 6 5 4 2 2 4 3 3 1 7 4 1 3 7 6 7 5 7 7 6 5 6 6 8 10 11 11 9 8
12 12 7 5 1 1 2 0 1 1 0 0 0 3 2 6 3 3 1 2 1 1 1 3 1 5 2 1 0 3 2 2 5 3 2 6 6 5 2 1 4 3 4 5 1 3 1 1 1 1 1 1 1 3 2 1 0 4 3 2 5 1 7 3 5 4 2 6 6 3 0 1 2 9 6 9 5 4 7 7 8 8 10 11 10 10 8 7
10 12 11 7 1 1 1 2 2 1 0 1 2 2 3 2 3 2 2 3 1 2 2 1 0 1 1 1 4 3 1 2 2 4 3 3 3 7 7 2 1 1 1 2 1 2 0 2 2 5 2 2 1 1 3 2 5 7 4 6 8 5 6 2 5 5 1 3 2 5 3 3 8 12 9 6 10 9 8 9 10 9 9 9 9 9 7 7
9 7 9 6 2 3 0 1 1 1 1 1 4 4 2 4 1 3 0 0 1 1 1 2 0 0 0 1 1 1 2 2 2 2 2 1 4 1 0 1 1 1 2 1 2 7 2 1 4 2 3 0 1 3 5 2 3 7 5 2 5 5 3 3 4 2 5 5 2 3 1 4 7 10 10 14 13 11 11 12 8 8 9 9 8 7 6 6
8 6 6 3 4 1 2 1 1 2 1 3 2 3 6 2 3 4 0 2 0 1 3 1 0 1 3 1 0 1 1 0 1 1 2 0 4 1 1 2 2 2 2 2 2 0 5 4 2 2 0 1 1 1 3 3 1 2 1 1 2 3 1 4 2 4 4 10 5 2 2 6 5 8 3 10 6 4 6 7 7 6 6 5 4 4 6 6
5 6 4 0 1 1 1 2 1 1 3 2 7 4 3 5 3 3 3 1 2 0 0 1 1 1 1 1 2 1 1 0 1 0 5 1 0 1 0 1 3 2 0 1 1 1 1 6 3 1 1 0 3 0 2 3 1 1 2 3 5 2 5 3 3 2 4 6 11 1 5 4 5 6 4 1 4 5 4 6 4 8 7 5 5 7 8 8
3 0 0 1 1 1 1 1 1 1 3 6 3 1 4 4 1 2 0 2 1 2 1 2 2 1 1 2 1 1 4 0 1 2 1 1 1 2 0 1 0 0 1 1 1 0 2 2 1 3 3 1 1 1 0 1 1 1 2 0 1 3 5 1 1 1 1 2 10 2 9 7 5 11 4 2 3 8 4 7 5 9 9 5 8 9 9 9
0 1 0 2 1 1 1 1 2 3 7 6 5 3 3 1 1 2 2 1 1 5 2 4 3 4 2 3 1 0 2 1 1 1 2 1 1 3 1 1 3 0 2 3 1 2 1 8 2 2 1 0 1 2 1 1 1 3 1 3 2 2 4 4 2 3 2 1 8 3 6 14 8 9 2 4 4 11 8 9 10 9 7 9 11 11 11 10
0 1 0 0 1 0 1 1 1 6 4 4 2 5 1 0 0 0 0 0 1 2 3 2 1 3 3 2 2 2 1 1 1 1 1 1 1 3 4 2 1 3 1 1 2 1 3 5 1 1 2 3 1 0 2 0 0 2 2 3 1 1 2 2 2 5 4 5 7 6 5 10 6 11 5 6 4 10 9 9 7 11 10 12 12 12 10 8
2 2 0 1 0 0 1 1 5 4 3 2 2 1 1 1 0 1 2 2 0 2 1 3 1 0 1 1 1 0 1 1 1 2 1 1 1 2 2 4 0 1 1 1 2 1 1 1 5 0 1 1 1 2 3 2 2 2 2 1 0 3 2 0 2 2 5 7 5 9 5 12 6 7 7 11 8 8 9 4 10 12 11 10 10 10 10 9
0 1 1 1 1 1 1 2 5 6 4 2 2 2 1 1 0 1 1 1 0 1 2 0 1 1 0 2 3 2 1 1 3 1 1 1 1 0 2 1 4 1 2 1 1 0 1 2 3 2 3 1 2 4 6 8 4 1 1 1 1 0 2 3 0 3 4 3 2 2 9 10 11 8 6 12 10 9 7 10 9 9 10 10 10 9 9 9
0 3 1 1 1 0 2 10 8 2 1 0 1 1 0 1 0 0 1 2 0 1 1 1 2 2 4 2 3 1 1 2 1 2 3 1 3 1 0 2 3 2 0 3 2 0 2 1 5 5 5 2 8 2 4 6 6 7 8 6 8 4 1 1 9 1 1 2 3 1 11 12 20 2 10 10 9 7 8 9 10 8 9 9 9 9 9 9
1 0 1 1 1 1 2 3 2 0 3 2 1 0 0 3 1 0 0 0 1 0 2 1 0 1 1 1 2 2 3 1 1 0 2 3 0 1 1 2 2 3 3 3 2 2 2 2 1 7 7 7 3 0 1 2 2 2 6 4 4 3 5 3 2 4 1 4 3 2 1 16 7 3 4 7 6 8 9 7 9 8 9 9 10 10 10 11
2 1 3 2 2 3 8 4 0 4 1 1 2 1 0 0 2 2 1 0 0 1 0 0 1 1 2 1 1 1 3 1 5 2 2 1 2 1 1 4 3 5 4 1 1 2 4 2 1 7 7 3 0 1 1 1 1 1 2 4 4 4 7 9 6 5 4 1 1 1 3 15 13 3 4 6 6 5 6 6 10 9 7 9 10 10 11 10
1 1 1 0 3 2 4 2 1 1 1 2 1 0 1 1 1 0 0 0 1 0 1 0 2 1 0 0 1 2 3 1 1 2 1 1 1 2 3 3 1 3 2 4 4 3 1 3 4 4 5 4 1 1 1 2 1 3 3 4 3 4 6 2 6 1 1 8 9 9 10 12 9 4 1 4 4 7 8 8 7 9 9 9 10 10 9 10
3 0 0 5 8 4 2 3 3 4 1 1 1 0 1 1 2 1 2 1 0 1 1 1 1 0 1 0 1 1 1 0 1 1 1 1 1 0 5 2 1 1 1 3 1 1 1 3 2 1 4 9 11 9 7 3 6 3 1 2 3 10 9 3 2 1 4 4 9 4 10 17 19 8 6 7 9 12 8 8 8 9 12 11 9 9 10 9
0 1 4 3 6 6 4 2 5 6 5 2 0 2 2 0 0 2 3 0 1 0 0 0 1 1 1 1 1 0 1 1 1 1 1 1 2 0 2 1 2 2 2 2 3 2 1 0 2 6 7 9 11 6 0 3 1 3 5 8 8 3 5 4 5 5 10 4 9 15 14 20 25 26 21 18 11 12 14 8 8 9 10 11 10 9 9 10
1 1 0 1 2 5 1 3 2 2 2 4 1 2 2 1 1 1 3 0 0 1 0 0 1 1 1 1 2 0 1 1 1 1 2 5 0 1 0 4 3 1 3 1 1 2 2 2 7 9 10 16 9 8 4 3 8 13 9 9 7 8 10 9 10 11 6 6 11 13 15 14 22 21 19 20 20 19 15 12 13 12 11 10 9 9 10 9
0 1 2 0 1 0 0 1 2 3 1 1 0 1 3 2 0 1 1 0 0 0 1 1 1 2 4 4 3 1 1 1 0 3 1 0 1 1 0 0 1 3 1 0 1 2 3 3 6 7 11 9 11 12 11 10 9 13 11 7 7 9 9 15 19 14 9 8 15 21 2 6 20 21 22 21 21 19 18 18 15 13 12 8 6 9 10 12
2 1 1 1 0 1 1 0 2 4 4 1 0 1 2 3 5 4 2 0 1 1 2 2 3 7 6 2 2 2 2 0 3 1 4 2 5 2 1 1 1 2 1 0 0 1 2 5 5 3 6 12 14 9 10 11 7 7 11 13 12 10 16 18 21 14 15 16 21 20 21 24 24 23 24 23 20 19 19 13 11 12 15 11 9 10 12 13
1 1 0 4 5 3 0 1 2 3 2 0 0 2 3 5 4 1 1 2 0 2 0 2 5 2 4 4 3 3 6 4 1 1 3 7 0 2 3 5 2 1 1 2 1 2 2 6 3 0 2 9 10 3 1 3 3 10 16 11 12 11 12 17 15 14 8 15 21 26 23 23 24 21 18 19 18 16 12 13 13 15 13 11 11 12 13 14
0 0 4 5 1 1 1 1 1 1 0 1 0 1 2 3 4 4 1 1 1 3 4 4 2 2 1 3 2 7 5 3 4 1 6 6 3 5 4 2 7 5 2 1 1 1 1 5 2 2 3 8 2 4 7 8 8 12 20 22 12 5 6 8 9 11 8 15 16 7 9 16 20 15 8 11 11 13 17 17 13 13 11 9 11 14 14 15
2 0 2 2 1 1 1 1 1 2 1 4 3 2 2 3 4 4 1 1 0 0 3 4 3 3 0 1 9 7 1 3 2 1 3 2 1 1 0 2 8 9 7 5 0 3 4 1 1 2 4 8 2 5 9 11 10 11 10 9 9 6 5 3 8 5 15 7 3 8 14 14 15 12 13 16 15 16 17 16 12 13 11 9 13 15 16 15
Wind_Direction
28 29 28 23 25 27 29 44 45 31 29 43 39 30 8 22 47 47 48 40 20 17 17 356 347 357 4 351 349 344 352 82 30 36 40 176 240 283 299 295 295 298 296 67 326 25 356 357 340 337 353 52 315 44 308 33 19 54 59 115 61 151 81 193 156 178 130 110 299 41 104 119 126 159 148 99 44 78 61 69 60 50 59 74 89 86 88 88
23 27 27 23 23 21 18 19 44 45 25 31 44 32 8 11 42 43 45 39 29 27 32 356 338 352 0 2 2 353 44 54 34 33 39 322 337 343 336 332 332 332 300 27 73 74 51 331 307 16 56 38 328 17 7 348 47 80 109 77 141 190 173 146 171 134 107 131 110 117 89 129 154 155 180 86 122 103 85 56 81 92 66 68 72 80 78 82
22 23 22 23 25 21 17 17 23 27 17 10 39 34 9 10 31 39 38 27 14 6 1 314 305 330 346 353 331 7 38 12 21 18 321 342 342 338 335 331 331 347 180 244 220 137 170 202 258 79 23 88 8 26 40 332 66 11 109 75 191 205 170 187 134 97 127 149 126 101 36 85 327 131 81 136 156 142 132 142 80 134 148 141 115 92 92 85
19 21 22 19 21 20 10 28 33 11 14 30 38 32 11 23 28 43 29 5 338 333 316 319 329 331 344 332 341 2 76 51 36 292 307 334 335 330 333 330 329 356 117 157 147 141 167 52 66 94 62 61 320 41 46 318 78 295 74 152 176 188 110 201 123 120 117 121 119 112 117 78 26 63 128 143 104 216 222 190 161 182 168 154 147 121 107 98
17 19 17 21 15 20 9 18 31 29 35 47 35 26 7 18 57 52 23 354 350 341 339 333 334 336 337 342 357 92 80 56 298 297 292 331 331 327 330 333 341 351 93 162 127 78 129 129 88 41 78 67 7 17 10 357 83 79 46 173 149 173 86 167 153 150 89 62 108 131 108 159 112 36 114 166 141 203 197 210 200 160 158 150 145 140 123 118
11 11 8 15 13 10 12 8 14 26 26 31 34 18 14 16 51 59 37 360 344 345 336 331 321 318 341 45 69 63 91 99 301 311 316 323 327 328 331 341 355 353 64 42 44 14 65 14 64 32 25 62 17 85 301 47 7 87 16 124 158 185 128 205 92 54 125 113 123 136 178 78 78 125 166 112 200 229 168 136 137 138 143 136 129 136 121 122
2 6 1 8 14 6 8 9 352 30 37 27 39 46 37 34 63 62 316 346 323 318 326 319 308 316 318 26 39 76 87 183 326 279 321 328 322 332 335 354 7 25 51 46 17 61 45 74 76 64 89 76 21 82 342 51 33 101 148 150 147 143 124 147 118 126 98 118 163 143 90 107 137 78 315 74 336 110 74 110 122 127 127 135 129 140 145 150
3 360 357 354 8 3 4 8 339 35 41 32 37 39 32 356 327 284 338 333 348 335 332 319 299 286 335 55 39 37 48 325 289 289 325 332 328 335 345 11 20 21 55 53 348 47 73 57 103 144 57 119 190 107 305 72 16 95 111 193 139 65 124 124 120 91 90 78 87 95 93 160 185 155 86 88 142 105 109 111 116 122 122 125 134 150 149 148
1 355 354 353 7 2 354 12 340 26 31 34 20 350 319 291 297 359 337 340 331 328 325 335 306 212 137 86 109 73 357 252 276 299 339 336 330 352 20 18 350 43 81 44 34 94 101 287 102 154 192 106 44 100 335 99 3 151 159 131 99 102 131 145 103 120 118 111 137 75 51 73 138 99 45 187 198 174 130 115 128 124 127 146 154 158 158 164
353 346 356 355 7 358 330 13 9 6 2 19 354 313 281 294 348 340 331 321 318 340 356 18 87 115 59 77 47 68 268 272 301 333 335 339 352 8 18 15 11 33 49 356 35 27 64 175 146 151 123 82 90 72 136 78 168 132 94 105 128 165 138 193 144 160 169 138 183 104 135 148 207 33 247 224 206 169 129 136 145 136 147 160 162 170 178 172
345 339 346 354 9 348 334 10 8 355 341 327 302 281 266 288 328 330 314 300 299 335 11 15 46 96 51 60 85 101 248 13 331 338 341 356 18 23 5 357 358 44 63 37 41 3 292 172 148 122 45 165 95 28 62 209 140 88 124 88 37 349 66 56 52 194 154 25 120 121 144 161 270 27 218 180 190 169 145 160 158 151 160 164 171 178 196 195
335 341 350 357 359 335 348 354 357 340 329 309 290 293 305 323 338 335 309 292 281 33 60 45 19 97 92 72 67 88 261 253 326 326 352 11 349 322 323 52 53 58 67 60 23 11 75 153 86 60 164 167 74 55 26 313 71 109 108 99 330 355 46 48 109 305 89 132 119 119 96 298 244 221 240 164 156 166 152 167 174 169 173 178 179 190 199 202
331 342 343 5 351 352 343 334 353 339 326 301 307 309 314 333 348 343 333 338 351 4 37 90 91 75 87 42 311 244 278 311 356 5 6 11 329 262 359 36 72 84 84 77 41 348 32 95 99 72 27 93 160 75 168 73 26 71 40 126 22 8 352 271 335 358 46 179 152 149 320 259 233 249 159 152 155 149 152 180 188 186 187 192 193 196 213 228
337 348 340 353 358 340 319 340 4 340 328 307 319 316 337 347 340 328 330 318 310 350 10 77 83 66 79 141 270 257 269 95 22 24 353 329 39 310 0 353 5 66 56 108 87 34 40 39 86 111 100 74 100 335 43 355 22 102 273 57 75 39 286 298 27 307 86 156 176 218 300 278 260 231 184 173 163 160 180 191 192 192 197 202 207 207 214 226
335 341 339 343 340 341 334 1 19 352 350 318 340 325 329 324 313 313 309 332 341 333 60 69 46 69 49 112 268 302 131 52 30 344 328 15 22 345 349 343 353 359 64 49 69 37 42 64 61 38 12 332 31 45 13 26 0 24 52 292 324 79 283 312 335 91 53 315 105 105 283 254 245 213 189 179 173 169 183 194 195 198 200 208 212 218 223 229
341 345 334 335 3 359 350 24 60 43 10 13 29 54 39 24 344 298 321 263 295 1 38 57 353 98 100 50 248 18 39 30 333 311 318 60 56 358 291 282 302 19 40 12 37 56 45 62 77 137 357 10 48 76 59 32 342 352 85 278 302 351 264 344 35 25 59 248 342 60 260 311 300 210 186 182 176 182 186 197 201 203 207 210 216 221 226 239
340 320 318 336 68 81 205 145 70 27 357 351 350 353 9 25 7 359 55 36 2 358 76 122 92 91 79 248 330 31 307 283 309 351 325 7 119 264 348 28 11 331 7 26 23 34 6 54 321 35 41 85 327 100 323 4 328 325 8 151 231 289 330 319 301 24 352 74 306 15 240 245 246 226 184 186 184 183 195 202 206 206 209 213 219 223 226 230
330 310 284 208 127 159 193 56 35 18 348 335 353 324 329 339 12 36 355 12 355 70 85 105 99 43 28 18 47 300 312 298 349 306 270 310 74 18 60 36 327 49 50 7 359 41 345 47 19 143 44 22 28 27 97 248 242 290 333 360 330 313 206 251 336 276 16 351 335 307 278 270 279 228 194 193 189 190 204 200 203 208 211 220 223 225 228 230
288 269 232 151 151 178 52 43 35 17 338 313 329 278 345 45 34 61 43 340 35 350 26 329 23 104 189 302 293 306 310 256 293 22 330 354 336 38 47 69 59 19 348 55 329 51 354 59 40 40 24 2 12 92 118 239 202 245 241 234 215 296 301 309 270 285 57 318 308 281 257 285 285 231 217 205 195 198 213 209 213 216 218 222 224 227 229 230
256 239 171 158 173 103 15 57 47 33 0 28 8 29 14 19 9 344 344 32 71 113 152 266 182 91 7 359 344 288 260 15 67 326 329 329 353 360 43 55 12 57 61 59 324 11 91 74 50 54 300 313 289 176 178 257 216 248 238 215 260 256 280 255 260 265 337 321 250 234 278 274 271 222 209 204 186 213 214 212 216 215 219 224 226 227 231 232
238 225 157 179 176 45 325 62 61 60 75 98 84 68 216 167 86 27 304 43 258 77 86 340 79 125 124 274 295 3 20 310 94 5 353 270 94 66 331 24 16 47 358 286 130 315 69 70 355 287 270 266 265 168 43 46 96 182 153 276 299 288 292 287 281 343 319 58 281 262 281 274 267 247 212 184 176 213 208 214 217 218 222 223 223 230 234 236
223 207 163 174 175 10 292 44 53 74 93 97 72 118 135 195 191 188 121 63 357 11 45 346 15 30 330 245 270 154 81 31 11 356 336 41 331 94 318 77 68 67 324 353 18 19 41 80 265 247 232 87 58 51 46 66 86 56 127 165 345 294 281 298 257 252 324 12 276 294 297 282 271 234 213 193 202 219 210 204 210 206 220 227 227 231 238 252
199 209 161 172 84 320 358 18 25 82 59 43 77 87 124 267 344 288 97 127 76 311 44 18 17 5 341 311 329 79 62 49 292 341 338 24 11 66 101 54 41 29 11 28 138 85 55 324 297 285 165 122 19 21 30 26 61 45 1 8 291 260 40 310 276 342 309 204 274 315 311 277 265 243 237 228 208 239 219 218 227 210 214 218 221 219 223 233
240 196 185 162 31 310 29 5 53 57 33 112 90 133 268 19 4 124 56 103 147 317 55 164 126 162 290 21 321 46 74 346 81 329 339 61 79 203 74 115 67 49 19 17 77 96 138 159 119 72 50 119 126 3 51 33 345 307 166 184 270 304 246 193 286 332 305 307 191 292 289 296 11 214 260 255 239 276 265 242 244 244 237 232 242 251 219 226
308 240 156 129 356 5 358 29 43 58 164 55 24 247 274 332 73 136 93 24 19 10 174 25 100 252 236 325 1 155 310 34 115 237 279 66 355 41 96 131 95 72 161 89 71 71 13 286 50 42 41 45 82 36 71 50 350 326 234 199 248 246 269 272 297 344 357 334 4 29 341 308 305 265 256 261 269 252 237 221 239 236 238 237 240 237 239 236
310 248 100 87 61 37 346 49 345 154 78 134 212 269 307 339 30 44 94 77 59 270 352 282 173 299 139 311 25 183 77 54 250 268 68 329 180 128 53 32 83 188 232 13 120 155 164 351 71 125 80 49 64 108 172 104 352 50 311 191 220 242 248 275 307 34 315 317 272 65 101 277 330 283 247 237 228 246 272 246 248 243 242 237 236 237 232 227
357 48 57 67 81 53 44 292 198 116 59 285 256 294 302 357 285 85 36 356 44 240 125 235 82 277 99 304 13 87 86 276 323 359 32 329 55 354 99 302 23 42 134 164 41 285 78 351 34 37 53 46 34 21 246 139 74 298 224 55 311 303 289 277 242 179 237 273 293 68 133 237 311 276 299 298 230 255 261 254 251 245 241 239 239 236 232 225
21 42 51 48 58 56 177 131 65 109 185 242 348 325 336 321 79 51 78 70 279 12 83 315 177 345 82 323 62 101 188 298 35 318 87 313 105 4 87 164 140 174 262 84 220 258 125 250 70 24 58 44 13 227 226 174 177 249 296 336 310 293 277 266 191 194 228 27 302 328 13 343 259 262 4 14 258 262 255 250 248 244 239 239 241 238 232 222
14 27 40 45 70 64 82 112 135 183 240 266 306 348 341 43 86 106 117 114 239 76 255 76 355 43 337 356 29 349 319 14 129 293 326 43 42 176 68 192 136 139 53 96 200 255 316 151 212 130 106 318 257 263 199 152 352 280 296 307 250 255 245 175 130 114 345 59 286 282 200 214 277 270 321 356 239 262 249 245 241 238 237 235 236 239 230 221
21 16 34 65 74 49 14 43 59 214 275 332 340 330 56 60 33 37 24 267 67 256 105 249 64 257 38 71 326 3 48 330 61 313 34 77 329 28 44 125 114 84 71 16 78 195 279 311 174 93 176 204 265 270 191 201 234 319 353 333 339 31 67 46 72 89 58 20 252 222 167 115 296 263 220 149 223 205 239 267 255 252 248 243 238 235 226 215
25 24 35 78 111 206 98 304 271 239 210 77 96 48 75 37 114 106 185 228 53 251 352 26 269 16 35 111 106 343 56 337 345 31 338 8 357 34 14 138 37 61 42 7 358 335 359 351 137 267 54 21 71 332 20 135 76 32 356 328 334 353 7 32 350 33 67 279 259 199 122 188 263 293 265 234 257 214 201 230 235 236 234 233 230 229 222 213
21 35 39 68 129 40 152 223 184 125 139 133 76 61 72 240 16 162 215 338 195 273 119 246 1 99 8 342 80 334 33 347 356 38 51 29 37 31 352 120 32 60 330 354 298 348 232 224 309 314 290 78 311 66 300 14 5 24 346 2 40 302 30 332 9 2 217 244 186 187 348 352 230 232 259 269 242 242 223 218 220 221 232 231 234 228 216 211
11 23 40 49 49 55 8 181 104 159 104 69 72 53 64 94 230 263 98 337 217 55 264 98 222 37 220 50 7 311 271 83 320 65 115 33 97 359 285 91 214 199 316 291 328 6 290 292 333 279 21 208 121 52 326 10 338 11 33 39 55 10 17 310 267 220 296 267 224 179 255 238 258 280 245 252 254 230 223 222 225 214 222 226 228 226 219 216
14 29 66 5 68 103 167 125 161 153 91 45 73 38 51 84 249 199 266 227 196 351 53 67 42 29 35 158 248 16 53 259 59 315 37 219 54 80 323 320 67 9 72 77 61 314 18 346 280 160 242 57 83 149 176 189 325 249 209 132 158 137 112 319 318 337 276 279 275 308 58 237 358 266 226 222 247 275 240 231 232 246 242 244 245 237 222 218
56 59 100 7 28 352 155 159 119 128 81 65 53 88 137 239 223 182 237 236 265 349 132 317 70 64 346 18 310 320 154 267 50 50 19 62 263 151 223 302 337 109 83 81 263 66 209 232 250 303 232 83 116 210 127 96 60 240 150 104 58 257 136 178 202 196 302 341 324 290 199 208 217 259 251 289 301 286 254 252 259 259 251 245 252 230 224 222
80 278 80 349 45 278 158 134 124 84 94 60 77 64 198 198 339 154 199 157 109 145 187 45 87 54 287 311 320 63 323 149 318 80 331 62 178 138 226 194 204 122 142 128 195 75 27 286 307 305 50 85 163 158 292 123 21 241 62 346 216 171 110 5 347 345 61 48 256 198 301 274 288 290 309 350 325 272 273 264 251 252 248 234 240 233 228 225
355 342 67 326 350 265 194 160 146 83 64 93 96 241 212 282 209 166 307 122 199 138 105 128 262 147 223 241 230 320 264 47 279 106 266 153 308 176 176 277 163 58 194 134 329 184 150 266 286 100 261 334 249 138 88 350 154 73 48 231 118 115 119 123 262 327 60 145 272 22 276 300 22 299 322 329 282 268 258 247 243 251 249 240 238 233 225 221
141 61 144 12 260 142 144 190 87 50 80 84 201 242 164 178 298 127 278 60 64 36 106 133 269 92 260 129 273 189 305 140 273 73 217 191 261 143 120 158 203 209 268 269 124 263 105 329 305 280 219 251 20 143 334 327 9 160 198 174 73 310 337 321 87 343 341 297 281 285 272 264 209 257 325 284 237 265 253 247 247 251 241 237 240 238 234 232
60 89 31 283 288 155 194 99 69 73 62 59 235 352 236 246 285 131 221 131 193 118 135 237 150 287 135 173 214 37 186 178 189 172 101 232 123 171 171 167 168 170 355 126 74 167 45 151 296 343 127 314 329 77 271 255 339 39 59 56 331 107 189 114 212 181 124 270 20 286 9 286 201 228 211 269 260 266 271 251 240 239 236 232 232 233 230 229
16 38 334 266 320 59 92 68 60 47 70 184 226 221 181 208 231 269 274 174 231 124 234 148 244 124 199 211 143 172 248 174 160 217 142 271 160 192 182 300 162 202 56 356 145 142 164 134 259 275 305 359 294 185 217 160 157 261 50 322 346 17 212 117 267 154 196 203 200 254 322 285 274 190 219 254 261 257 236 251 248 242 235 230 230 229 230 228
71 104 264 275 346 196 45 46 50 45 119 341 106 169 44 245 167 293 9 18 110 320 173 201 163 194 196 119 277 164 153 171 179 172 185 271 159 299 194 163 156 142 151 33 63 249 89 181 212 306 347 221 236 230 187 174 168 171 167 204 172 126 179 344 276 53 78 108 237 128 272 284 277 161 222 238 254 243 241 231 248 245 239 236 237 235 226 231
88 25 279 300 332 77 77 48 15 106 98 133 198 164 36 104 67 301 20 344 79 151 355 116 219 132 140 137 179 178 133 178 215 93 262 173 268 149 232 101 135 162 126 177 195 235 148 171 93 275 218 238 246 222 43 131 138 168 158 231 156 139 106 111 259 277 18 243 123 162 58 272 237 181 193 229 232 241 240 220 240 243 241 241 240 235 232 225
59 168 248 334 330 85 68 66 315 38 59 246 314 336 353 44 133 234 127 283 95 158 14 115 204 95 244 158 210 151 167 230 166 221 206 190 233 200 254 108 124 84 84 326 42 275 91 88 9 266 292 315 337 316 64 67 152 339 259 115 117 178 179 179 188 177 157 234 199 331 216 259 275 170 217 228 237 255 261 220 235 245 247 247 241 236 232 233
149 159 28 350 49 91 85 216 223 264 286 311 76 249 284 179 134 47 292 291 147 129 181 218 334 224 202 100 118 186 201 165 249 124 275 176 152 114 8 67 343 180 134 224 138 230 73 281 128 308 337 327 359 348 336 351 68 223 209 216 161 83 76 134 101 39 280 216 176 133 248 267 277 121 208 239 253 258 256 247 221 254 254 246 244 239 233 231
113 339 31 305 4 55 227 188 137 152 209 155 140 157 216 358 187 194 164 206 110 176 98 263 196 141 53 102 81 50 1 157 274 315 107 173 200 342 318 116 331 166 230 252 191 67 152 213 117 305 308 321 320 334 315 273 225 222 212 137 173 143 129 119 204 98 202 267 148 182 254 258 273 273 268 281 291 289 270 254 252 233 253 257 249 240 235 227
92 142 304 343 10 37 68 59 108 137 137 151 57 244 129 53 339 305 137 278 178 113 58 132 16 88 73 50 42 329 228 353 91 262 141 241 264 318 235 201 109 199 246 114 52 57 175 309 198 177 172 226 234 238 307 96 35 229 236 168 208 188 181 124 107 129 215 206 188 232 222 278 293 293 301 298 295 285 296 292 267 264 255 249 249 250 237 227
154 89 288 280 346 51 84 15 97 87 191 173 167 165 235 181 249 338 171 329 226 153 31 111 181 136 257 98 221 206 239 293 10 113 222 180 253 255 252 166 42 261 180 111 93 81 67 306 237 217 239 241 252 276 282 20 277 274 260 246 193 178 176 162 177 223 143 92 275 246 228 249 265 280 290 297 301 302 299 295 292 287 278 264 253 245 243 238
157 253 105 209 140 283 77 342 108 71 34 129 226 85 186 131 80 181 349 83 20 292 130 317 115 223 177 180 147 159 206 225 136 233 48 249 91 334 50 292 175 250 133 334 8 131 149 212 281 149 256 257 265 267 280 280 248 258 259 242 214 196 168 193 226 218 138 208 242 271 201 219 274 282 287 289 290 291 295 293 290 286 285 279 260 247 241 239
102 128 135 325 245 260 134 152 107 124 90 97 123 101 175 183 220 215 163 47 25 305 168 256 254 226 211 203 153 198 180 71 285 231 183 169 191 126 280 332 229 16 129 37 341 179 106 253 241 172 279 290 282 258 258 248 273 274 255 250 236 188 204 207 234 222 206 233 252 268 281 275 273 278 279 282 287 287 286 290 292 287 277 271 255 249 244 244
212 144 250 5 86 105 288 67 93 90 114 328 130 257 166 185 214 263 315 134 210 275 40 214 256 269 197 172 159 156 216 198 177 245 221 122 122 163 222 190 158 352 118 178 151 275 137 278 84 176 342 278 284 293 320 239 237 282 280 245 230 218 215 222 238 249 219 261 261 261 271 279 275 267 272 276 276 277 286 278 268 273 275 265 256 251 250 246
151 150 149 122 66 315 34 32 94 120 34 317 160 256 133 207 224 189 165 185 172 181 176 212 217 133 124 170 211 244 231 196 183 253 192 165 205 216 161 273 132 143 152 186 125 302 113 266 53 63 349 290 339 28 314 306 284 271 277 284 274 186 217 225 215 218 167 225 246 279 285 266 269 274 246 251 266 277 279 284 285 277 270 255 251 255 252 250
78 62 83 103 84 288 149 13 66 85 282 230 171 208 176 240 207 159 166 170 112 204 195 188 196 112 354 155 242 231 252 193 209 261 198 202 93 95 288 170 155 149 173 173 272 142 185 148 345 20 338 259 279 352 322 317 313 302 278 231 220 198 213 241 254 187 207 189 273 260 253 260 275 291 299 288 282 282 286 283 285 284 271 244 251 257 256 253